DECAYED

STARLINK-1275, 45407 (Decayed)

Orbit data source: Space-Track

STARLINK-1275, 45407 was a payload satellite owned by SpaceX/Seattle (US) in LEO that was launched on Wed, 18 Mar 2020 UTC via an FALCON 9 launch vehicle from the Air Force Eastern Test Range (AFETR). Payload-class satellites include a variety of spacecraft equipped with specific instruments for various scientific and technological missions. These include communications satellites like Starlink; space stations such as the ISS; scientific satellites like the Hubble; Earth observation satellites from companies like Planet Labs, Umbra, and HawkEye 360; GPS; miniature CubeSats for education and research; and military/defense satellites.

Not visible in the next 10 days
Identifier
45407, 2020-019AZ
Orbit
Decayed
Country
Flag of USUS
Related business
Manufacturer
SpaceX/Seattle
Mission
Decayed Commercial Communications
Bus & Motor
STARLINK, Unknown motor
Mass
260 kg wet, ~248 kg dry
Launch date (UTC)
2020-03-18 (6 years ago)
Launch vehicle
FALCON 9
Launch site
Air Force Eastern Test Range (AFETR)
Object type
Payload
Rocket body
Debris
Shape & HBR
Box + 1 Pan, 10.1 m
Radar Cross Section
13.562 m², Large (>1 m²)

Expand to show TLE details & history
Last TLE update: 5 months ago

TLE from 5 months ago
0 STARLINK-1275
1 45407U 20019AZ  25125.70562885  .22790939  12086-4  37666-2 0  9990
2 45407  53.0249 340.0960 0010277 246.6287 231.1966 16.32444524284837
Epoch: 2025-05-05T16:56Z
TLE epoch observation values (Epoch: 2025-05-05T16:56:06.332Z)
Latitude
45.14844°
Longitude
-6.54829°
Altitude
194.881 km
Speed
7.793 km/s
True Right ascension
07h 25m 10s
True Declination
44° 57' 42"
Sunlit
Object was in daylight at epoch
Visualization orbit readout
Latitude
Unknown
Longitude
Unknown
Altitude
Unknown
Speed
Unknown
Apparent Right ascension
Unknown
Apparent Declination
Unknown
Sunlit
N/A
Visualization observer readout
Local Sidereal Time
18:34:17
Azimuth
Unknown
Elevation
Unknown
Doppler factor
Unknown
Orbital elements
Apogee altitude
193.015 km
Perigee altitude
179.523 km
Semi-major axis
6,564.406 km
Eccentricity
0.00103
Inclination
53.0249°
RAAN
340.096°
Arg. of periapsis
246.6287°
True anomaly
231.1049°
Mean anomaly
231.1966°
Eccentric anomaly
231.15074°
Mean motion
4.08084 °/min
Orbital period
88.22 mins
BSTAR
0.0037666
Loading maneuver chart data...
Computing Atmospheric mass density...
Loading historical data...
Loading historical data...
Loading historical data...
Loading historical data...
Loading historical data...
Loading historical data...
Loading historical data...

Documentation

Showing up to 5 results
|